Regional Weather Roundup
Issued by NWS

Home | Current Version | Previous Version | Text Only | Print | Product List | Glossary On
Versions: 1 2 3 4 5 6 7 8 9 10 11 12 13 14 15 16 17 18 19 20 21 22 23 24 25 26 27 28 29 30 31 32 33 34 35 36 37 38 39 40 41 42 43 44 45 46 47 48 49 50
000
ASUS44 KFWD 011515
RWRTX
NORTH TEXAS HOURLY WEATHER ROUNDUP
NATIONAL WEATHER SERVICE FORT WORTH TX
1000 AM CDT WED APR 01 2015

NOTE: "FAIR" INDICATES FEW OR NO CLOUDS BELOW 12,000 FEET WITH NO
SIGNIFICANT WEATHER AND/OR OBSTRUCTIONS TO VISIBILITY.

TXZ118-119-011600-
DALLAS/FORT WORTH METROPLEX

CITY           SKY/WX    TMP DP  RH WIND       PRES   REMARKS
DFW AIRPORT    CLOUDY    70  66  87 S7        29.90R FOG
DALLAS LOVE    CLOUDY    71  66  84 S7        29.91S HAZE
FTW MEACHAM    CLOUDY    70  64  81 SE8       29.89S HAZE
DAL-EXECUTIVE  CLOUDY    71  66  84 S8        29.91F HAZE
FTW-ALLIANCE   LGT RAIN  69  66  90 S5        29.90S
FTW-NAS-JRB    CLOUDY    71  65  81 SE8       29.94S
FTW-SPINKS     CLOUDY    70  64  83 S9        29.92F FOG
ARLINGTON      CLOUDY    71  65  81 SE9       29.91F
GRAND PRAIRIE  SUNNY     68  68 100 S7        29.93S
ADDISON        CLOUDY    70  64  83 S7        29.92R FOG
MESQUITE       PTSUNNY   70  66  88 SE12      29.93S FOG
LANCASTER      CLOUDY    69  64  84 S7        29.95R
$$

TXZ091>094-102>105-117-120-121-131>134-011600-
NORTH CENTRAL TEXAS

CITY           SKY/WX    TMP DP  RH WIND       PRES   REMARKS
SHRMAN/DENISON LGT RAIN  66  66  99 NW3       29.93F
GAINESVILLE    CLOUDY    65  64  94 SE8       29.94F FOG
BOWIE          PTSUNNY   67  64  89 SE7       29.90F
BRIDGEPORT     LGT RAIN  66  66 100 NE5       29.90F
DECATUR        CLOUDY    65  64  97 E5        29.90F FOG
DENTON         LGT RAIN  67  65  93 VRB3      29.91F FOG
MCKINNEY       CLOUDY    70  66  87 S6        29.94R FOG
GREENVILLE     CLOUDY    70  64  83 S9        29.94S
ROCKWALL       CLOUDY    70  66  87 S13G20    29.92S
TERRELL        CLOUDY    71  66  84 S12       29.94S HAZE
WAXAHACHIE     CLOUDY    69  68  98 S7        29.94S FOG
CLEBURNE       CLOUDY    70  70 100 S10       29.94R FOG
GRANBURY         N/A     70  65  83 SE7       29.91S
$$

TXZ083>090-098>101-113>116-127>130-139>142-154-155-011600-
WESTERN NORTH TEXAS

CITY           SKY/WX    TMP DP  RH WIND       PRES   REMARKS
WICHITA FALLS  PTSUNNY   69  62  78 S10       29.84F
WF-KICKAPOO    PTSUNNY   70  63  78 S9        29.87R
VERNON         MOSUNNY   65  58  77 S9        29.85F
ABILENE        CLOUDY    68  62  81 S9        29.89S
ABILENE-DYESS  CLOUDY    67  64  92 S12       29.88R
BRECKENRIDGE   CLOUDY    71  61  71 SE5       29.86F
GRAHAM         CLOUDY    70  65  82 CALM      29.86F
MINERAL WELLS  CLOUDY    67  64  90 S7        29.88F FOG
STEPHENVILLE   CLOUDY    69  63  83 S9        29.94S
COMANCHE       CLOUDY    69  65  89 S7        29.92R
BROWNWOOD      CLOUDY    68  64  88 S12       29.92S
COLEMAN        CLOUDY    70  64  80 S12       29.90S
$$

TXZ143>147-156>162-174-175-011600-
CENTRAL TEXAS

CITY           SKY/WX    TMP DP  RH WIND       PRES   REMARKS
WACO           CLOUDY    73  66  78 S14       29.94S
WACO-TSTC      CLOUDY    72  66  83 S12       29.95R FOG
WACO-MCGREGOR  CLOUDY    73  64  73 S17       29.95S
HILLSBORO      CLOUDY    70  65  84 S14       29.93S
CORSICANA      PTSUNNY   73  66  78 S16       29.96S
MEXIA          CLOUDY    72  66  81 S17G23    29.96R
HEARNE         CLOUDY    70  65  85 SE10G16   30.00S
CAMERON        CLOUDY    71  66  83 S8        29.97F
TEMPLE         PTSUNNY   72  63  73 SE17      29.95R
KILLEEN        MOSUNNY   73  65  77 S14       29.93F
KILLEEN-SKYLRK MOSUNNY   73  63  68 MISG      29.94F
FORT HOOD      MOSUNNY   73  65  74 S13       29.93F
GATESVILLE     PTSUNNY   73  64  73 S15       29.96S
HAMILTON       CLOUDY    70  65  83 S13       29.94F
LAMPASAS       MOSUNNY   73  67  80 SE8       29.92F
$$

TXZ095>097-106>112-122>126-135>138-148>153-164>167-011600-
EAST TEXAS

CITY           SKY/WX    TMP DP  RH WIND       PRES   REMARKS
SULPHUR SPRNGS PTSUNNY   70  65  85 S10G18    29.97R HAZE
MOUNT PLEASANT CLOUDY    69  66  88 S12       29.99R
GILMER         CLOUDY    68  65  90 S8        29.98R
MINEOLA        CLOUDY    70  66  88 S6        29.97S FOG
TYLER          CLOUDY    69  64  84 S14       29.97R
LONGVIEW       PTSUNNY   71  66  84 S13       29.98R HAZE
MARSHALL       PTSUNNY   73  69  85 SW13      30.01R
ATHENS         CLOUDY    68  64  88 S10G17    29.96S
PALESTINE      CLOUDY    71  66  85 S9        30.00R
JACKSONVILLE   CLOUDY    68  65  88 S7        30.01S
HENDERSON      CLOUDY    69  65  88 S7        30.00R
NACOGDOCHES    PTSUNNY   70  63  78 SW8G17    30.01S
LUFKIN         MOSUNNY   72  64  76 S12       30.01S
$$

SUPPLEMENTAL OBSERVATIONS (CENTRAL)

CITY           SKY/WX    TMP DP  RH WIND       PRES   REMARKS
LAKE TEXOMA      N/A     64  59  82 W14         N/A
CADDO GRASSLND   N/A     66  63  88 W3G17       N/A
PAT MAYSE LAKE   N/A     66  63  88 S16         N/A
GREENVILLE       N/A     70  64  83 S7G16       N/A
CEDAR HILL       N/A     72  66  83 S9          N/A
ATHENS           N/A     72  64  78 S12G21      N/A
MCGREGOR         N/A     73  64  73 S17G23      N/A
TEMPLE           N/A     72  64  78 S15         N/A
$$

SUPPLEMENTAL OBSERVATIONS (WEST)

CITY           SKY/WX    TMP DP  RH WIND       PRES   REMARKS
MILLERS CREEK    N/A    N/A N/A N/A SW10        N/A
POSSUM KINGDOM   N/A    N/A N/A N/A S8          N/A
LBJ GRASSLAND    N/A     66  63  88 E5          N/A
GRANBURY         N/A     72  64  78 SE8         N/A
HAMBY            N/A     70  63  78 S9          N/A
IVIE RESERVOIR   N/A     72  63  73 SE13        N/A
COLORADO BEND    N/A     73  64  73 S8          N/A
$$

SUPPLEMENTAL OBSERVATIONS (EAST)

CITY           SKY/WX    TMP DP  RH WIND       PRES   REMARKS
CLARKSVILLE      N/A     70  68  94 SW10G21     N/A
TEXARKANA        N/A     68  64  88 S5          N/A
LINDEN           N/A     70  66  88 S5          N/A
CADDO LAKE       N/A     72  66  83 S3          N/A
GILMER           N/A     70  66  88 SW6         N/A
HENDERSON        N/A     70  64  83 SW12        N/A
LUFKIN           N/A     72  64  78 MISG        N/A
N SABINE NF      N/A     73  68  83 MISG        N/A
S SABINE NF      N/A     72  66  83 CALM        N/A
$$

SUPPLEMENTAL OBSERVATIONS ARE A COLLECTION OF AUTOMATED INSTRUMENTS
THAT ARE MAINTAINED BY A VARIETY OF FEDERAL AND STATE AGENCIES.
CERTAIN ELEMENTS...SUCH AS HUMIDITY VALUES AND SUSTAINED WIND
SPEEDS...MAY BE APPROXIMATED.




USA.gov is the U.S. government's official web portal to all federal, state and local government web resources and services.